Weather History for Fairbanks, AK

Change the Weather History Date:

Friday, September 6, 2013

  Actual Average Record
Temperature  
Mean Temperature 46 °F 49 °F  
Max Temperature 53 °F 60 °F 80 °F (1911)
Min Temperature 38 °F 39 °F 20 °F (1921)
Degree Days  
Heating Degree Days 19 16  
Month to date heating degree days 83 88  
Since 1 July heating degree days 342 477  
Cooling Degree Days 0 0  
Month to date cooling degree days 0 0  
Year to date cooling degree days 226 61  
Moisture  
Dew Point 42 °F    
Average Humidity 80    
Maximum Humidity 93    
Minimum Humidity 66    
Precipitation  
Precipitation 0.07 in 0.05 in 0.44 in (1985)
Month to date precipitation 0.53 0.28  
Year to date precipitation 6.33 7.85  
Snow  
Snow 0.00 in 0.00 in T in (1944)
Month to date snowfall 0.0 0.1  
Since 1 July snowfall 0.0 0.1  
Since 1 September snowfall 0.0 0.1  
Snow Depth 0.00 in    
Sea Level Pressure  
Sea Level Pressure 29.78 in    
Wind  
Wind Speed 3 mph (NNE)    
Max Wind Speed 10 mph    
Max Gust Speed -    
Visibility 10 miles    
Events Rain    
T = Trace of Precipitation, MM = Missing Value Source: NWS Daily Summary

Daily Weather History Graph

Daily Weather History Graph

Search for Another Location

Airport:

Trip Planner

Search our weather history database for the weather conditions in past years. The results will help you decide how hot, cold, wet, or windy it might be!

Date:

Astronomy

Sep. 06, 2013 Rise Set
Actual Time 6:48 AM AKDT 8:49 PM AKDT
Civil Twilight 5:55 AM AKDT 9:41 PM AKDT
Nautical Twilight 4:44 AM AKDT 10:51 PM AKDT
Astronomical Twilight 2:51 AM AKDT 12:37 AM AKDT
Moon 9:00 AM AKDT (9/6) 8:19 PM AKDT (9/6)
Length of Visible Light 15h 46m
Length of Day
14h 01m
New Moon, 2% of the Moon is Illuminated
Sep 6
New Moon
Sep 12
First Quarter
Sep 19
Full
Sep 26
Last Quarter
Oct 4
New

Hourly Weather History & Observations

Time (AKDT) Temp. Windchill Dew Point Humidity Pressure Visibility Wind Dir Wind Speed Gust Speed Precip Events Conditions
12:53 AM 45.0 °F - 41.0 °F 86% 30.00 in 10.0 mi Calm Calm - N/A   Scattered Clouds
1:53 AM 43.0 °F 41.3 °F 39.9 °F 89% 30.00 in 10.0 mi North 3.5 mph - N/A   Mostly Cloudy
2:53 AM 42.1 °F 40.2 °F 39.0 °F 89% 30.00 in 10.0 mi North 3.5 mph - N/A   Mostly Cloudy
3:53 AM 42.1 °F - 39.0 °F 89% 29.99 in 10.0 mi Calm Calm - N/A   Mostly Cloudy
4:53 AM 41.0 °F - 37.9 °F 89% 30.00 in 10.0 mi Calm Calm - N/A   Mostly Cloudy
5:53 AM 37.9 °F - 36.0 °F 93% 29.98 in 10.0 mi Calm Calm - N/A   Mostly Cloudy
6:53 AM 39.0 °F - 36.0 °F 89% 29.96 in 10.0 mi Calm Calm - N/A   Mostly Cloudy
7:53 AM 41.0 °F 36.4 °F 37.0 °F 86% 29.95 in 10.0 mi NE 6.9 mph - N/A   Mostly Cloudy
8:53 AM 45.0 °F 40.6 °F 39.9 °F 82% 29.92 in 10.0 mi East 8.1 mph - N/A   Mostly Cloudy
9:53 AM 45.0 °F 42.6 °F 39.9 °F 82% 29.90 in 10.0 mi North 4.6 mph - N/A   Mostly Cloudy
10:53 AM 48.9 °F - 39.9 °F 71% 29.87 in 10.0 mi NNE 3.5 mph - N/A   Mostly Cloudy
11:53 AM 51.1 °F - 41.0 °F 68% 29.83 in 10.0 mi Calm Calm - N/A   Overcast
12:53 PM 51.1 °F - 42.1 °F 71% 29.80 in 10.0 mi ENE 4.6 mph - N/A   Overcast
1:53 PM 53.1 °F - 42.1 °F 66% 29.76 in 10.0 mi Calm Calm - N/A   Overcast
2:53 PM 53.1 °F - 43.0 °F 69% 29.73 in 10.0 mi NE 3.5 mph - N/A   Overcast
3:53 PM 51.1 °F - 44.1 °F 77% 29.70 in 10.0 mi Calm Calm - 0.00 in Rain Light Rain
4:53 PM 51.1 °F - 45.0 °F 80% 29.66 in 9.0 mi NE 4.6 mph - 0.02 in Rain Light Rain
5:53 PM 52.0 °F - 46.9 °F 83% 29.62 in 8.0 mi NNE 9.2 mph - 0.02 in Rain Light Rain
6:53 PM 52.0 °F - 46.0 °F 80% 29.57 in 8.0 mi NNE 10.4 mph - 0.02 in Rain Light Rain
7:53 PM 51.1 °F - 46.0 °F 83% 29.54 in 10.0 mi NNE 9.2 mph - 0.00 in Rain Light Rain
8:53 PM 51.1 °F - 46.0 °F 83% 29.51 in 10.0 mi NNE 9.2 mph - 0.00 in   Mostly Cloudy
9:53 PM 51.1 °F - 45.0 °F 80% 29.49 in 10.0 mi NNE 4.6 mph - N/A   Mostly Cloudy
10:53 PM 51.1 °F - 45.0 °F 80% 29.47 in 10.0 mi ENE 4.6 mph - 0.00 in Rain Light Rain
11:53 PM 51.1 °F - 45.0 °F 80% 29.47 in 10.0 mi Calm Calm - 0.00 in   Overcast